Sterling, IL

7:45 AM CDT on May 27, 2018 (GMT -0500)
Whiteside County-Bittorf

Weather History for KSQI - May, 2013

Change the Weather History Date:

Saturday, May 18, 2013

  Actual Average Record
Temperature  
Mean Temperature 70 °F -  
Max Temperature 84 °F 69 °F 89 °F (1998)
Min Temperature 57 °F 48 °F 32 °F (2002)
Cooling Degree Days 6    
Growing Degree Days 20 (Base 50)    
Moisture  
Dew Point 58 °F    
Average Humidity 65    
Maximum Humidity 83    
Minimum Humidity 45    
Precipitation  
Precipitation 0.00 in - - ()
Sea Level Pressure  
Sea Level Pressure 29.99 in    
Wind  
Wind Speed 7 mph (SE)    
Max Wind Speed 10 mph    
Max Gust Speed 16 mph    
Visibility 9 miles    
Events      
Averages and records for this station are not official NWS values.
T = Trace of Precipitation, MM = Missing Value Source: NWS Daily Summary

Daily Weather History Graph

Daily Weather History Graph

Search for Another Location

Airport or City:

Astronomy

May. 18, 2013 Rise Set
Actual Time 5:35 AM CDT 8:15 PM CDT
Civil Twilight 5:03 AM CDT 8:47 PM CDT
Nautical Twilight 4:23 AM CDT 9:27 PM CDT
Astronomical Twilight 3:38 AM CDT 10:13 PM CDT
Moon 1:12 PM CDT (5/18) 1:34 AM CDT (5/18)
Length of Visible Light 15h 43m
Length of Day
14h 39m
First Quarter, 55% of the Moon is Illuminated
May 18
First Quarter
May 24
Full
May 31
Last Quarter
Jun 8
New
Jun 16
First Quarter

Hourly Weather History & Observations

Time (CDT) Temp. Heat Index Dew Point Humidity Pressure Visibility Wind Dir Wind Speed Gust Speed Precip Events Conditions
12:15 AM 59.0 °F - 51.8 °F 77% 30.00 in 10.0 mi East 6.9 mph - N/A   Clear
12:35 AM 57.2 °F - 51.8 °F 82% 30.00 in 10.0 mi East 4.6 mph - N/A   Clear
12:55 AM 57.2 °F - 51.8 °F 82% 30.00 in 10.0 mi East 6.9 mph - N/A   Clear
1:15 AM 57.2 °F - 51.8 °F 82% 30.00 in 10.0 mi East 8.1 mph - N/A   Clear
1:35 AM 57.2 °F - 51.8 °F 82% 30.00 in 10.0 mi East 5.8 mph - N/A   Clear
1:55 AM 57.2 °F - 51.8 °F 82% 30.00 in 10.0 mi East 4.6 mph - N/A   Clear
2:15 AM 57.2 °F - 51.8 °F 82% 30.01 in 10.0 mi East 5.8 mph - N/A   Scattered Clouds
2:35 AM 59.0 °F - 53.6 °F 82% 30.01 in 10.0 mi East 5.8 mph - N/A   Overcast
2:55 AM 60.8 °F - 53.6 °F 77% 30.02 in 10.0 mi East 6.9 mph - N/A   Overcast
3:15 AM 59.0 °F - 53.6 °F 82% 30.02 in 10.0 mi East 8.1 mph - N/A   Overcast
3:35 AM 60.8 °F - 51.8 °F 72% 30.02 in 10.0 mi East 8.1 mph - N/A   Overcast
3:55 AM 60.8 °F - 51.8 °F 72% 30.02 in 10.0 mi East 6.9 mph - N/A   Overcast
4:15 AM 60.8 °F - 53.6 °F 77% 30.03 in 10.0 mi East 6.9 mph - N/A   Overcast
4:35 AM 60.8 °F - 53.6 °F 77% 30.02 in 10.0 mi ESE 8.1 mph - N/A   Overcast
4:55 AM 60.8 °F - 53.6 °F 77% 30.01 in 10.0 mi East 8.1 mph - N/A   Overcast
5:15 AM 60.8 °F - 53.6 °F 77% 30.02 in 8.0 mi East 4.6 mph - N/A   Overcast
5:35 AM 60.8 °F - 55.4 °F 82% 30.02 in 8.0 mi ENE 6.9 mph - N/A   Overcast
5:55 AM 60.8 °F - 55.4 °F 82% 30.02 in 6.0 mi East 6.9 mph - N/A   Overcast
6:15 AM 60.8 °F - 55.4 °F 82% 30.02 in 6.0 mi East 8.1 mph - N/A   Overcast
6:35 AM 60.8 °F - 55.4 °F 82% 30.03 in 5.0 mi East 6.9 mph - N/A   Mostly Cloudy
6:55 AM 62.6 °F - 57.2 °F 82% 30.03 in 4.0 mi East 5.8 mph - N/A   Mostly Cloudy
7:15 AM 64.4 °F - 59.0 °F 83% 30.03 in 4.0 mi East 9.2 mph - N/A   Overcast
7:35 AM 64.4 °F - 59.0 °F 83% 30.03 in 4.0 mi ESE 9.2 mph - N/A   Scattered Clouds
7:55 AM 66.2 °F - 60.8 °F 83% 30.03 in 4.0 mi ESE 9.2 mph - N/A   Clear
8:15 AM 69.8 °F - 60.8 °F 73% 30.03 in 5.0 mi SE 6.9 mph - N/A   Clear
8:35 AM 69.8 °F - 62.6 °F 78% 30.03 in 6.0 mi SE 6.9 mph - N/A   Clear
8:55 AM 71.6 °F - 62.6 °F 73% 30.03 in 7.0 mi SE 6.9 mph - N/A   Clear
9:15 AM 73.4 °F - 62.6 °F 69% 30.03 in 7.0 mi SE 6.9 mph - N/A   Clear
9:35 AM 73.4 °F - 62.6 °F 69% 30.03 in 9.0 mi SE 9.2 mph - N/A   Clear
9:55 AM 75.2 °F - 62.6 °F 65% 30.02 in 10.0 mi SSE 8.1 mph 16.1 mph N/A   Partly Cloudy
10:15 AM 75.2 °F - 60.8 °F 61% 30.02 in 10.0 mi SSE 8.1 mph - N/A   Scattered Clouds
10:35 AM 77.0 °F - 62.6 °F 61% 30.03 in 10.0 mi SSE 9.2 mph - N/A   Mostly Cloudy
10:55 AM 77.0 °F - 62.6 °F 61% 30.03 in 10.0 mi South 8.1 mph - N/A   Mostly Cloudy
11:15 AM 78.8 °F - 62.6 °F 57% 30.02 in 10.0 mi SSW 5.8 mph - N/A   Mostly Cloudy
11:35 AM 77.0 °F - 60.8 °F 57% 30.02 in 10.0 mi South 4.6 mph - N/A   Mostly Cloudy
11:55 AM 78.8 °F - 60.8 °F 54% 30.02 in 10.0 mi SSE 8.1 mph - N/A   Mostly Cloudy
12:15 PM 78.8 °F - 60.8 °F 54% 30.01 in 10.0 mi South 5.8 mph - N/A   Overcast
12:35 PM 80.6 °F 81.8 °F 62.6 °F 54% 30.00 in 10.0 mi SSE 8.1 mph - N/A   Mostly Cloudy
12:55 PM 80.6 °F 81.5 °F 60.8 °F 51% 30.00 in 10.0 mi SE 10.4 mph - N/A   Mostly Cloudy
1:15 PM 80.6 °F 81.5 °F 60.8 °F 51% 29.99 in 10.0 mi SSE 6.9 mph - N/A   Mostly Cloudy
1:35 PM 82.4 °F 82.9 °F 60.8 °F 48% 29.98 in 10.0 mi SSE 10.4 mph - N/A   Mostly Cloudy
2:15 PM 82.4 °F 82.9 °F 60.8 °F 48% 29.97 in 10.0 mi South 8.1 mph - N/A   Mostly Cloudy
2:55 PM 82.4 °F 82.5 °F 59.0 °F 45% 29.96 in 10.0 mi SSE 9.2 mph - N/A   Overcast
3:15 PM 84.2 °F 84.4 °F 60.8 °F 45% 29.95 in 10.0 mi SSE 8.1 mph - N/A   Mostly Cloudy
3:35 PM 80.6 °F 81.1 °F 59.0 °F 48% 29.95 in 10.0 mi SE 10.4 mph - N/A   Overcast
3:55 PM 80.6 °F 81.1 °F 59.0 °F 48% 29.95 in 10.0 mi SE 6.9 mph - N/A   Overcast
4:15 PM 80.6 °F 81.1 °F 59.0 °F 48% 29.95 in 10.0 mi SE 6.9 mph - N/A   Overcast
4:35 PM 80.6 °F 81.1 °F 59.0 °F 48% 29.95 in 10.0 mi SSE 5.8 mph - N/A   Overcast
4:55 PM 82.4 °F 82.9 °F 60.8 °F 48% 29.94 in 10.0 mi SSE 8.1 mph - N/A   Mostly Cloudy
5:15 PM 80.6 °F 81.1 °F 59.0 °F 48% 29.94 in 10.0 mi SE 6.9 mph - N/A   Overcast
5:35 PM 80.6 °F 80.8 °F 57.2 °F 45% 29.94 in 10.0 mi SSE 6.9 mph - N/A   Overcast
5:55 PM 82.4 °F 82.5 °F 59.0 °F 45% 29.93 in 10.0 mi SSE 9.2 mph - N/A   Scattered Clouds
6:15 PM 80.6 °F 81.1 °F 59.0 °F 48% 29.93 in 10.0 mi SE 6.9 mph - N/A   Clear
7:35 PM 78.8 °F - 59.0 °F 51% 29.93 in 10.0 mi SSE 9.2 mph - N/A   Partly Cloudy
7:55 PM 78.8 °F - 57.2 °F 47% 29.93 in 10.0 mi South 4.6 mph - N/A   Clear
8:15 PM 77.0 °F - 59.0 °F 54% 29.93 in 10.0 mi South 4.6 mph - N/A   Clear
8:35 PM 75.2 °F - 59.0 °F 57% 29.93 in 10.0 mi South 4.6 mph - N/A   Clear
8:55 PM 73.4 °F - 59.0 °F 61% 29.94 in 10.0 mi Calm Calm - N/A   Clear
9:15 PM 71.6 °F - 57.2 °F 60% 29.94 in 10.0 mi SE 3.5 mph - N/A   Clear
9:35 PM 69.8 °F - 57.2 °F 64% 29.94 in 10.0 mi SE 3.5 mph - N/A   Clear
10:15 PM 69.8 °F - 57.2 °F 64% 29.93 in 10.0 mi ESE 8.1 mph - N/A   Clear
10:35 PM 69.8 °F - 57.2 °F 64% 29.92 in 10.0 mi ESE 6.9 mph - N/A   Clear
11:15 PM 69.8 °F - 59.0 °F 68% 29.92 in 10.0 mi ESE 8.1 mph - N/A   Clear
11:35 PM 69.8 °F - 59.0 °F 68% 29.92 in 10.0 mi ESE 6.9 mph - N/A   Clear
11:55 PM 69.8 °F - 59.0 °F 68% 29.92 in 10.0 mi SE 6.9 mph - N/A   Clear